Hourly Data Report for October 10, 2016

All times are specified in Local Standard Time (LST). Add 1 hour to adjust for Daylight Saving Time where and when it is observed.

KITCHENER/WATERLOO
ONTARIO

43°27'39.000" N
80°22'43.000" W
321.60 m
6144239
71368
YKF

Download Data

Hourly Data (October 2016)
Hourly Data Report for October 10, 2016
Temp Definition
°C
Dew Point Temp Definition
°C
Rel Hum Definition
%
Wind Dir Definition
10's deg

Wind Spd Definition
km/h
Visibility Definition
km
Stn Press Definition
kPa
Hmdx Definition


Wind Chill Definition


Weather Definition


TIME
00:00 Legend Double Dagger 0.8 0.1 95 33 9 16.1 99.02     LegendNANA
01:00 Legend Double Dagger 1.2 0.2 93 34 8 16.1 99.06     LegendNANA
02:00 Legend Double Dagger 0.6 -0.1 95 35 9 16.1 99.07     LegendNANA
03:00 Legend Double Dagger 0.4 -0.3 95 36 5 16.1 99.06     LegendNANA
04:00 Legend Double Dagger -1.1 -1.5 97   0 16.1 99.09     LegendNANA
05:00 Legend Double Dagger -0.7 -1.0 98 36 5 16.1 99.16   -2 LegendNANA
06:00 Legend Double Dagger -1.6 -1.9 98 LegendMM 4 16.1 99.23   -3 LegendNANA
07:00 Legend Double Dagger -1.3 -1.6 98   0 16.1 99.26     LegendNANA
08:00 Legend Double Dagger 1.8 0.6 92 33 4 16.1 99.32     LegendNANA
09:00 Legend Double Dagger 5.6 1.2 73 LegendMM 4 16.1 99.32     LegendNANA
10:00 Legend Double Dagger 8.0 0.6 59 13 5 16.1 99.33     LegendNANA
11:00 Legend Double Dagger 9.0 1.1 57 LegendMM 4 16.1 99.30     LegendNANA
12:00 Legend Double Dagger 11.0 -0.4 45   0 16.1 99.26     LegendNANA
13:00 Legend Double Dagger 11.7 -1.2 41   0 16.1 99.19     LegendNANA
14:00 Legend Double Dagger 12.9 -3.3 32   0 16.1 99.13     LegendNANA
15:00 Legend Double Dagger 13.5 -1.6 35 LegendMM 5 16.1 99.08     LegendNANA
16:00 Legend Double Dagger 13.6 -3.2 31 17 5 16.1 99.04     LegendNANA
17:00 Legend Double Dagger 12.9 -0.5 40 16 8 16.1 99.03     LegendNANA
18:00 Legend Double Dagger 8.5 1.9 63 17 8 16.1 99.04     LegendNANA
19:00 Legend Double Dagger 5.2 2.6 83   0 16.1 99.03     LegendNANA
20:00 Legend Double Dagger 4.0 1.8 85   0 16.1 99.03     LegendNANA
21:00 Legend Double Dagger 2.7 1.1 89   0 16.1 99.07     LegendNANA
22:00 Legend Double Dagger 2.5 1.3 92 12 5 16.1 99.09     LegendNANA
23:00 Legend Double Dagger 1.2 0.2 93   0 16.1 99.07     LegendNANA

Notes on Data Quality.

Legend

  • E = Estimated
  • M = Missing
  • NA = Not Available
  • ‡ = Partner data that is not subject to review by the National Climate Archives
Date modified: